• In Russia
  • List of Countries
  • For 7 days
  • Water Temperature
  • Satellite Maps
  • Weather Map
  • Weather Widgets
  • user-avatar
    Login

    Hourly Weather Mazyr

    Today, 19 July, Thursday

    Time Temperature Precipitation Wind Pressure Humidity
    00:00 +19°C° 0 mm 2 mps 737 mmHg 97%
    01:00 +19°C° 0 mm 2 mps 737 mmHg 97%
    02:00 +19°C° 0 mm 2 mps 737 mmHg 97%
    03:00 +18°C° 0 mm 2 mps 737 mmHg 97%
    04:00 +18°C° 0 mm 2 mps 737 mmHg 98%
    05:00 +18°C° 0 mm 2 mps 738 mmHg 98%
    06:00 +19°C° 0 mm 2 mps 738 mmHg 94%
    07:00 +21°C° 0 mm 2 mps 738 mmHg 90%
    08:00 +23°C° 0 mm 2 mps 738 mmHg 85%
    09:00 +24°C° 0.4 mm 2 mps 738 mmHg 80%
    10:00 +25°C° 0.4 mm 3 mps 738 mmHg 75%
    11:00 +26°C° 0.4 mm 3 mps 738 mmHg 70%
    12:00 +27°C° 0.2 mm 3 mps 738 mmHg 66%
    13:00 +27°C° 0.2 mm 3 mps 738 mmHg 62%
    14:00 +28°C° 0.2 mm 3 mps 738 mmHg 59%
    15:00 +28°C° 0.5 mm 3 mps 737 mmHg 63%
    16:00 +27°C° 0.5 mm 3 mps 737 mmHg 67%
    17:00 +27°C° 0.5 mm 4 mps 737 mmHg 71%
    18:00 +25°C° 0.2 mm 3 mps 737 mmHg 78%
    19:00 +24°C° 0.2 mm 3 mps 737 mmHg 84%
    20:00 +21°C° 0.2 mm 2 mps 737 mmHg 90%
    21:00 +20°C° 0 mm 2 mps 737 mmHg 92%
    22:00 +20°C° 0 mm 2 mps 737 mmHg 94%
    23:00 +19°C° 0 mm 2 mps 737 mmHg 97%

    Tomorrow, 20 July, Friday

    Time Temperature Precipitation Wind Pressure Humidity
    00:00 +19°C° 0 mm 2 mps 737 mmHg 97%
    01:00 +18°C° 0 mm 2 mps 737 mmHg 97%
    02:00 +18°C° 0 mm 2 mps 738 mmHg 97%
    03:00 +18°C° 0 mm 2 mps 738 mmHg 97%
    04:00 +18°C° 0 mm 2 mps 738 mmHg 97%
    05:00 +18°C° 0 mm 2 mps 738 mmHg 97%
    06:00 +19°C° 0.1 mm 3 mps 738 mmHg 94%
    07:00 +20°C° 0.1 mm 3 mps 738 mmHg 90%
    08:00 +21°C° 0.1 mm 3 mps 738 mmHg 87%
    09:00 +22°C° 0.5 mm 3 mps 738 mmHg 84%
    10:00 +24°C° 0.5 mm 3 mps 738 mmHg 81%
    11:00 +25°C° 0.5 mm 3 mps 738 mmHg 78%
    12:00 +25°C° 1.1 mm 3 mps 738 mmHg 75%
    13:00 +26°C° 1.1 mm 3 mps 738 mmHg 72%
    14:00 +27°C° 1.1 mm 3 mps 738 mmHg 70%
    15:00 +27°C° 0.9 mm 3 mps 738 mmHg 72%
    16:00 +26°C° 0.9 mm 3 mps 738 mmHg 74%
    17:00 +26°C° 0.9 mm 3 mps 737 mmHg 75%
    18:00 +25°C° 0.4 mm 3 mps 738 mmHg 80%
    19:00 +24°C° 0.4 mm 3 mps 738 mmHg 85%
    20:00 +23°C° 0.4 mm 2 mps 738 mmHg 90%
    21:00 +21°C° 0 mm 2 mps 738 mmHg 92%
    22:00 +20°C° 0 mm 2 mps 738 mmHg 94%
    23:00 +20°C° 0 mm 2 mps 738 mmHg 96%

    Day after tomorrow, 21 July, Saturday

    Time Temperature Precipitation Wind Pressure Humidity
    00:00 +19°C° 0 mm 2 mps 738 mmHg 96%
    01:00 +19°C° 0 mm 2 mps 738 mmHg 97%
    02:00 +19°C° 0 mm 2 mps 738 mmHg 97%
    03:00 +19°C° 0 mm 2 mps 738 mmHg 97%
    04:00 +19°C° 0 mm 2 mps 738 mmHg 97%
    05:00 +18°C° 0 mm 2 mps 739 mmHg 98%
    06:00 +19°C° 0.1 mm 3 mps 739 mmHg 95%
    07:00 +20°C° 0.1 mm 3 mps 739 mmHg 92%
    08:00 +21°C° 0.1 mm 4 mps 739 mmHg 89%
    09:00 +21°C° 0.3 mm 4 mps 739 mmHg 87%
    10:00 +22°C° 0.3 mm 4 mps 739 mmHg 85%
    11:00 +23°C° 0.3 mm 4 mps 739 mmHg 82%
    12:00 +23°C° 1 mm 4 mps 739 mmHg 80%
    13:00 +25°C° 1 mm 5 mps 739 mmHg 78%
    14:00 +25°C° 1 mm 5 mps 739 mmHg 76%
    15:00 +25°C° 1.3 mm 5 mps 739 mmHg 77%
    16:00 +25°C° 1.3 mm 5 mps 739 mmHg 79%
    17:00 +25°C° 1.3 mm 4 mps 739 mmHg 81%
    18:00 +23°C° 0.9 mm 4 mps 739 mmHg 84%
    19:00 +22°C° 0.9 mm 4 mps 740 mmHg 88%
    20:00 +21°C° 0.9 mm 3 mps 740 mmHg 91%
    21:00 +20°C° 0.2 mm 3 mps 740 mmHg 92%
    22:00 +20°C° 0.2 mm 3 mps 740 mmHg 93%
    23:00 +20°C° 0.2 mm 3 mps 740 mmHg 94%

    22 July, Sunday

    Time Temperature Precipitation Wind Pressure Humidity
    00:00 +19°C° 0 mm 3 mps 740 mmHg 94%
    01:00 +19°C° 0 mm 3 mps 740 mmHg 94%
    02:00 +19°C° 0 mm 3 mps 740 mmHg 94%
    03:00 +18°C° 0 mm 3 mps 740 mmHg 94%
    04:00 +18°C° 0 mm 3 mps 740 mmHg 95%
    05:00 +18°C° 0 mm 3 mps 740 mmHg 95%
    06:00 +19°C° 0 mm 3 mps 740 mmHg 91%
    07:00 +20°C° 0 mm 4 mps 740 mmHg 87%
    08:00 +21°C° 0 mm 4 mps 740 mmHg 83%
    09:00 +23°C° 0 mm 4 mps 740 mmHg 76%
    10:00 +25°C° 0 mm 4 mps 740 mmHg 69%
    11:00 +26°C° 0 mm 4 mps 740 mmHg 62%
    12:00 +27°C° 0 mm 4 mps 740 mmHg 59%
    13:00 +28°C° 0 mm 4 mps 740 mmHg 57%
    14:00 +28°C° 0 mm 4 mps 740 mmHg 55%
    15:00 +28°C° 0.2 mm 4 mps 740 mmHg 59%
    16:00 +27°C° 0.2 mm 3 mps 740 mmHg 62%
    17:00 +27°C° 0.2 mm 3 mps 740 mmHg 66%
    18:00 +25°C° 0.2 mm 3 mps 740 mmHg 73%
    19:00 +24°C° 0.2 mm 2 mps 740 mmHg 81%
    20:00 +21°C° 0.2 mm 2 mps 740 mmHg 89%
    21:00 +21°C° 0 mm 2 mps 740 mmHg 91%
    22:00 +20°C° 0 mm 2 mps 740 mmHg 93%
    23:00 +19°C° 0 mm 2 mps 740 mmHg 95%

    23 July, Monday

    Time Temperature Precipitation Wind Pressure Humidity
    00:00 +19°C° 0 mm 2 mps 740 mmHg 95%
    01:00 +19°C° 0 mm 2 mps 740 mmHg 96%
    02:00 +18°C° 0 mm 2 mps 740 mmHg 96%
    03:00 +18°C° 0 mm 2 mps 740 mmHg 96%
    04:00 +18°C° 0 mm 2 mps 741 mmHg 96%
    05:00 +18°C° 0 mm 2 mps 741 mmHg 96%
    06:00 +19°C° 0 mm 2 mps 741 mmHg 91%
    07:00 +20°C° 0 mm 2 mps 741 mmHg 86%
    08:00 +23°C° 0 mm 2 mps 741 mmHg 81%
    09:00 +24°C° 0 mm 3 mps 741 mmHg 74%
    10:00 +26°C° 0 mm 4 mps 741 mmHg 66%
    11:00 +27°C° 0 mm 4 mps 741 mmHg 59%
    12:00 +27°C° 0.1 mm 4 mps 741 mmHg 58%
    13:00 +28°C° 0.1 mm 4 mps 741 mmHg 56%
    14:00 +28°C° 0.1 mm 4 mps 741 mmHg 54%
    15:00 +28°C° 0.1 mm 4 mps 741 mmHg 56%
    16:00 +27°C° 0.1 mm 4 mps 741 mmHg 58%
    17:00 +27°C° 0.1 mm 4 mps 741 mmHg 60%
    18:00 +25°C° 0 mm 3 mps 741 mmHg 65%
    19:00 +24°C° 0 mm 3 mps 742 mmHg 70%
    20:00 +21°C° 0 mm 2 mps 742 mmHg 75%
    21:00 +20°C° 0 mm 2 mps 742 mmHg 78%
    22:00 +19°C° 0 mm 2 mps 742 mmHg 80%
    23:00 +19°C° 0 mm 2 mps 742 mmHg 82%

    24 July, Tuesday

    Time Temperature Precipitation Wind Pressure Humidity
    00:00 +18°C° 0 mm 2 mps 742 mmHg 84%
    01:00 +18°C° 0 mm 3 mps 742 mmHg 85%
    02:00 +18°C° 0 mm 3 mps 742 mmHg 87%
    03:00 +17°C° 0 mm 3 mps 742 mmHg 88%
    04:00 +17°C° 0 mm 3 mps 743 mmHg 88%
    05:00 +17°C° 0 mm 3 mps 743 mmHg 89%
    06:00 +19°C° 0 mm 3 mps 743 mmHg 84%
    07:00 +20°C° 0 mm 3 mps 743 mmHg 79%
    08:00 +22°C° 0 mm 3 mps 743 mmHg 75%
    09:00 +24°C° 0 mm 3 mps 743 mmHg 69%
    10:00 +26°C° 0 mm 3 mps 743 mmHg 63%
    11:00 +27°C° 0 mm 4 mps 743 mmHg 57%
    12:00 +28°C° 0 mm 4 mps 743 mmHg 55%
    13:00 +28°C° 0 mm 4 mps 743 mmHg 53%
    14:00 +29°C° 0 mm 4 mps 743 mmHg 51%
    15:00 +29°C° 0 mm 4 mps 743 mmHg 53%
    16:00 +28°C° 0 mm 4 mps 743 mmHg 55%
    17:00 +28°C° 0 mm 4 mps 743 mmHg 56%
    18:00 +26°C° 0 mm 3 mps 743 mmHg 63%
    19:00 +25°C° 0 mm 3 mps 743 mmHg 70%
    20:00 +23°C° 0 mm 2 mps 743 mmHg 77%
    21:00 +21°C° 0 mm 2 mps 744 mmHg 81%
    22:00 +20°C° 0 mm 2 mps 744 mmHg 84%
    23:00 +19°C° 0 mm 2 mps 744 mmHg 88%
    Show more